Wind_Speed
40 38 34 33 32 29 29 28 29 30 35 43 46 47 48 47 47 47 48 48 49 49 50 50 51 52 52 52 52 51 49 48 48 48 48 49 49 48 48 48 47 47 47
43 39 36 35 34 32 31 30 30 31 32 34 41 46 47 49 50 50 51 52 52 51 51 52 53 53 54 54 54 53 52 52 51 52 52 53 53 53 52 52 51 51 51
42 40 39 39 37 35 34 33 32 32 33 35 36 37 41 47 50 51 53 54 54 54 54 55 55 56 57 57 57 57 56 56 56 56 57 57 57 56 56 55 54 55 55
40 40 41 40 38 38 37 36 36 36 37 37 37 38 39 41 43 46 50 54 56 57 57 57 58 60 60 61 61 61 61 61 61 60 60 59 59 59 60 60 60 59 58
40 41 42 41 41 41 42 40 40 40 40 42 43 44 43 44 46 47 49 50 51 52 54 57 59 61 63 64 64 64 65 65 65 64 64 63 61 59 58 57 56 56 56
45 46 45 45 44 44 44 44 44 44 45 46 47 47 48 49 50 51 52 53 55 56 57 58 59 60 60 61 61 61 61 61 62 61 61 60 60 59 59 58 58 57 56
49 48 48 49 48 47 47 48 50 50 51 52 53 54 54 55 55 56 57 58 58 58 59 61 62 62 63 63 63 64 64 65 66 66 66 65 65 64 63 63 62 60 58
52 53 54 54 53 51 51 52 53 54 56 57 58 59 59 59 60 60 60 60 61 60 60 61 63 63 63 63 64 65 66 68 69 69 68 67 67 67 67 67 65 63 63
59 60 59 59 57 57 57 58 58 58 58 59 59 59 59 60 60 61 62 63 63 63 66 68 69 68 68 66 66 67 69 69 69 69 69 69 71 72 72 72 72 73 73
65 64 63 61 60 60 61 61 61 60 61 62 62 62 62 62 64 65 66 67 68 70 71 72 72 73 73 73 74 74 75 75 75 76 76 75 75 75 74 75 75 76 77
66 65 64 63 64 66 66 66 65 64 64 65 66 68 69 70 70 71 73 74 74 75 76 76 76 78 79 80 81 82 83 82 81 81 81 82 81 81 79 79 79 80 80
63 65 66 68 68 68 68 68 69 70 71 73 73 73 74 76 77 78 79 79 80 81 84 84 84 85 87 88 89 90 90 90 90 88 87 88 86 86 86 85 84 84 86
70 71 71 71 71 71 72 74 76 77 77 77 79 82 83 84 85 86 87 88 87 87 89 91 92 92 92 93 93 94 95 94 93 92 91 90 90 90 91 88 89 89 91
73 74 75 75 76 76 78 78 80 81 82 85 87 89 90 91 93 94 95 95 96 95 95 96 96 97 98 99 99 99 98 97 95 94 95 94 95 92 92 93 92 91 93
75 76 76 78 79 81 83 85 87 89 91 93 94 96 97 100 102 101 99 100 102 101 100 100 100 101 102 104 104 103 102 100 98 98 97 96 96 95 93 93 92 92 92
77 79 81 83 86 89 91 93 95 97 99 101 102 104 105 104 102 103 103 102 100 100 101 101 101 102 102 105 106 106 105 104 103 102 101 102 102 100 98 98 98 96 95
84 86 88 91 93 96 98 101 103 105 106 107 109 106 106 106 107 108 109 109 110 109 108 108 107 107 107 107 109 110 111 109 108 108 108 107 107 106 105 104 104 103 102
93 96 99 102 104 105 106 108 109 110 111 112 113 114 114 113 113 114 115 112 111 110 110 110 110 111 111 111 109 107 107 108 107 107 107 107 104 103 103 102 103 102 102
104 106 107 109 111 111 110 111 113 114 115 117 116 115 117 117 116 114 110 107 106 105 104 104 105 105 105 106 108 108 109 109 110 109 109 110 111 109 107 105 103 101 101
110 112 114 115 115 116 116 118 120 120 120 121 122 121 116 112 111 109 107 107 108 108 109 108 108 108 108 109 108 105 108 110 111 113 112 111 111 109 109 109 107 106 105
116 118 119 120 120 121 121 123 125 127 125 122 119 117 116 114 113 112 112 110 109 108 106 105 103 103 104 105 106 104 105 106 106 107 109 110 109 110 109 109 110 109 107
117 119 121 123 124 126 128 127 124 120 118 117 116 116 114 113 110 108 107 105 103 101 100 100 99 100 100 101 102 102 101 101 101 102 103 104 104 105 106 107 107 105 103
124 126 127 127 126 124 121 120 118 114 112 110 108 107 106 104 102 100 99 99 98 97 98 97 96 95 94 94 95 95 94 94 94 94 95 95 96 98 100 102 104 103 102
125 123 121 119 118 115 112 109 106 104 102 100 99 99 99 99 99 99 98 95 94 92 91 90 89 87 85 84 85 88 90 91 92 94 94 92 92 93 95 96 98 99 97
115 113 110 108 106 104 101 98 98 98 97 96 95 93 93 91 91 90 90 88 87 85 84 82 81 81 82 84 86 89 92 93 93 90 90 89 88 89 90 91 92 92 91
102 99 98 98 97 97 95 93 92 90 88 88 85 84 82 81 79 78 77 77 77 77 78 80 82 84 85 86 89 92 92 89 86 83 83 81 82 84 86 86 85 86 85
Wind_Direction
283 281 284 290 290 287 283 277 272 269 262 256 255 255 255 256 256 257 258 258 259 260 261 262 263 264 266 267 268 269 269 268 269 269 270 271 273 274 275 274 273 272 271
279 278 282 286 285 284 282 277 274 271 269 267 261 258 258 258 259 260 260 261 261 262 263 263 264 265 266 268 268 269 269 269 269 269 270 270 271 272 273 271 271 271 271
277 279 282 285 282 280 278 278 274 272 268 266 265 264 262 259 259 260 261 262 263 263 264 264 265 265 266 267 269 269 269 269 270 269 269 270 270 271 270 270 270 271 271
271 273 280 281 280 277 272 273 273 271 270 269 267 265 264 264 264 263 262 262 263 263 263 263 264 265 266 267 268 268 269 269 269 269 269 270 270 271 272 271 271 271 270
270 273 278 276 279 275 270 271 271 271 269 267 267 267 266 265 264 264 264 264 264 264 264 264 265 266 266 267 268 269 270 270 270 270 270 270 271 271 271 271 270 269 268
270 275 278 277 279 275 268 267 269 270 269 268 266 266 266 265 265 264 265 265 264 264 265 265 265 265 266 267 268 269 269 270 270 270 270 270 270 270 269 269 269 268 268
274 276 278 277 276 272 268 267 268 269 269 268 269 270 271 270 270 269 268 267 265 264 265 265 266 266 267 268 268 268 269 269 269 270 270 270 270 270 270 269 268 267 268
277 279 279 276 274 272 270 269 270 270 269 268 269 269 270 271 271 271 271 270 267 265 267 269 269 268 268 269 270 269 269 269 269 269 269 268 268 268 268 266 265 264 265
280 279 277 275 274 273 273 272 274 273 272 271 270 270 269 270 270 270 270 269 269 268 268 269 270 271 269 268 269 270 269 270 270 270 269 269 269 268 267 267 266 266 266
276 276 275 275 276 276 276 275 274 273 272 272 272 271 270 271 272 271 271 271 270 270 269 269 269 270 269 269 270 270 270 271 271 271 270 269 268 268 266 266 267 267 267
274 274 274 275 277 277 277 276 276 275 274 274 273 273 273 273 273 272 273 274 273 271 270 269 269 268 268 268 268 270 271 271 270 271 271 270 268 267 265 265 266 266 267
274 274 275 276 276 276 274 274 274 275 275 275 275 275 276 277 278 277 276 275 274 273 273 273 272 271 270 269 269 270 270 269 268 268 268 268 267 266 264 264 265 264 264
274 276 276 274 274 274 274 275 276 277 277 276 277 279 280 280 280 279 278 277 276 274 273 272 272 272 271 271 271 271 270 270 269 269 268 267 267 265 265 264 263 263 263
274 274 274 274 275 275 276 276 277 278 278 279 279 279 280 280 281 280 280 279 279 278 276 276 275 274 273 273 272 272 272 271 271 271 269 267 266 265 267 266 263 263 263
275 275 275 276 277 277 277 278 279 279 279 280 281 280 280 280 280 278 278 279 278 277 276 275 275 274 274 273 273 273 273 272 271 270 269 269 269 267 266 266 265 263 262
278 279 278 279 279 279 279 280 280 281 280 279 279 280 279 279 279 280 280 279 278 277 276 274 273 272 272 272 272 272 271 270 270 270 270 269 268 267 266 266 266 264 263
277 277 278 278 279 280 281 281 281 281 281 280 281 282 282 281 281 282 281 280 279 278 277 275 274 273 272 271 270 271 271 270 270 270 270 269 269 268 266 265 265 264 262
276 278 279 279 280 280 280 280 279 280 280 280 281 281 282 281 280 280 280 279 277 275 274 273 273 273 272 271 271 270 269 269 268 268 268 268 267 267 267 266 264 263 263
279 279 280 281 282 282 282 282 282 281 281 282 282 282 282 281 280 279 278 276 275 273 272 272 271 271 270 270 270 269 269 268 268 267 267 267 267 266 266 266 266 265 263
281 282 282 282 282 282 282 281 281 283 283 283 282 282 281 279 278 277 276 275 274 273 273 273 271 270 269 268 267 267 266 267 267 267 267 267 267 267 266 266 265 264 264
280 280 281 281 281 281 282 282 282 283 282 282 281 280 279 278 277 277 276 275 274 273 273 272 271 269 269 268 267 266 265 265 265 265 265 266 266 267 266 266 265 265 265
279 279 279 280 281 282 282 282 282 281 280 279 278 278 277 277 277 276 276 275 274 272 272 271 270 269 268 268 267 266 266 265 265 264 264 264 265 265 265 265 265 265 265
282 282 282 282 282 282 281 280 281 280 280 278 278 277 277 276 276 275 274 273 272 271 271 270 269 268 267 266 266 266 265 265 264 265 264 264 264 264 264 264 265 265 264
282 282 282 282 281 281 281 280 279 279 279 278 276 276 276 276 275 274 273 273 272 271 270 269 269 268 267 266 266 266 267 267 267 267 266 264 263 262 262 263 263 264 264
282 282 282 281 281 280 280 279 279 279 279 278 277 276 275 274 274 273 273 273 272 271 269 269 268 268 268 268 269 270 270 271 270 267 265 262 261 260 261 262 262 263 263
282 281 281 281 281 281 281 280 280 279 279 278 278 277 276 275 274 272 271 271 270 270 270 270 271 271 271 271 271 271 270 268 267 265 262 260 258 257 258 260 261 262 263
Height
10646 10645 10644 10644 10644 10643 10643 10642 10642 10642 10642 10644 10645 10647 10649 10651 10653 10654 10656 10657 10658 10660 10661 10662 10663 10664 10665 10667 10668 10669 10670 10671 10671 10672 10673 10673 10673 10672 10672 10671 10671 10671 10672
10635 10635 10635 10634 10635 10635 10635 10634 10634 10634 10634 10634 10635 10637 10638 10641 10642 10643 10644 10645 10646 10648 10650 10651 10652 10653 10653 10654 10655 10656 10657 10658 10659 10660 10660 10661 10661 10660 10660 10659 10659 10660 10660
10627 10625 10625 10625 10624 10625 10624 10624 10625 10625 10624 10625 10626 10626 10628 10629 10630 10631 10632 10633 10635 10636 10637 10638 10639 10639 10640 10641 10642 10643 10643 10644 10645 10645 10646 10647 10647 10647 10646 10646 10646 10647 10647
10619 10618 10616 10615 10614 10614 10614 10614 10614 10615 10614 10614 10615 10616 10617 10618 10618 10618 10619 10620 10622 10623 10623 10624 10625 10625 10626 10627 10627 10628 10628 10629 10629 10630 10630 10631 10632 10633 10633 10633 10633 10633 10632
10608 10608 10606 10605 10605 10604 10603 10603 10603 10604 10604 10603 10603 10604 10605 10606 10606 10606 10606 10607 10608 10608 10608 10609 10610 10611 10611 10611 10612 10613 10613 10614 10613 10614 10614 10615 10616 10617 10617 10617 10618 10618 10618
10595 10595 10595 10594 10593 10593 10592 10592 10591 10591 10591 10591 10591 10591 10592 10593 10593 10592 10593 10593 10594 10594 10594 10594 10595 10595 10595 10596 10596 10597 10597 10597 10597 10597 10598 10599 10600 10601 10602 10602 10602 10603 10604
10580 10581 10580 10580 10580 10579 10579 10579 10578 10578 10578 10578 10578 10578 10579 10578 10578 10578 10578 10578 10578 10579 10579 10578 10579 10579 10580 10580 10580 10580 10579 10579 10580 10580 10581 10582 10584 10585 10586 10586 10586 10588 10588
10564 10565 10565 10564 10565 10565 10565 10564 10564 10564 10563 10563 10563 10563 10563 10562 10562 10562 10562 10561 10561 10562 10562 10562 10562 10562 10563 10563 10562 10562 10562 10561 10562 10563 10564 10564 10566 10567 10568 10568 10570 10571 10571
10548 10547 10547 10547 10548 10548 10548 10548 10547 10547 10546 10546 10546 10546 10546 10545 10545 10545 10544 10544 10544 10545 10544 10544 10544 10544 10545 10545 10544 10544 10544 10544 10543 10544 10545 10546 10547 10547 10548 10549 10551 10552 10553
10530 10529 10529 10530 10530 10529 10529 10529 10529 10529 10528 10527 10527 10527 10528 10528 10528 10528 10526 10526 10526 10525 10524 10524 10524 10524 10524 10524 10524 10524 10523 10523 10523 10524 10524 10525 10526 10526 10528 10529 10529 10530 10531
10513 10512 10512 10512 10511 10510 10509 10509 10509 10508 10508 10508 10507 10506 10506 10507 10507 10506 10506 10505 10505 10503 10502 10501 10501 10501 10501 10501 10501 10501 10501 10501 10501 10502 10501 10502 10503 10503 10506 10507 10508 10508 10509
10496 10495 10495 10493 10492 10491 10490 10489 10488 10488 10487 10485 10484 10483 10483 10483 10482 10482 10481 10481 10480 10479 10477 10477 10477 10475 10474 10474 10474 10475 10475 10475 10475 10476 10477 10477 10477 10477 10480 10484 10484 10484 10485
10478 10476 10474 10472 10471 10470 10469 10468 10466 10465 10463 10462 10461 10459 10458 10457 10455 10454 10453 10452 10451 10451 10450 10449 10448 10447 10446 10445 10445 10445 10444 10445 10446 10448 10449 10450 10450 10451 10452 10457 10457 10458 10458
10460 10457 10454 10452 10451 10449 10447 10445 10444 10442 10440 10438 10436 10434 10433 10430 10429 10426 10423 10422 10421 10420 10419 10417 10416 10415 10414 10413 10412 10412 10413 10414 10416 10417 10417 10418 10420 10423 10424 10426 10429 10429 10431
10436 10433 10431 10429 10427 10425 10423 10421 10419 10417 10415 10412 10410 10407 10404 10402 10399 10397 10395 10394 10391 10389 10387 10385 10383 10382 10383 10381 10380 10380 10381 10382 10384 10384 10386 10388 10389 10390 10394 10395 10397 10399 10401
10413 10410 10408 10405 10402 10399 10397 10395 10392 10390 10387 10383 10380 10377 10375 10371 10368 10366 10363 10360 10358 10356 10354 10354 10352 10351 10351 10348 10347 10347 10348 10350 10351 10353 10355 10356 10357 10359 10362 10362 10365 10367 10370
10390 10386 10383 10379 10376 10373 10371 10367 10362 10358 10354 10350 10348 10345 10341 10338 10334 10331 10328 10325 10322 10319 10318 10316 10316 10316 10316 10316 10314 10314 10314 10316 10318 10318 10319 10322 10322 10325 10327 10329 10331 10334 10336
10362 10360 10356 10351 10347 10345 10343 10337 10331 10326 10321 10316 10313 10310 10307 10303 10300 10297 10292 10288 10285 10284 10282 10280 10279 10278 10278 10277 10278 10280 10280 10280 10282 10284 10285 10285 10288 10290 10292 10294 10297 10300 10303
10331 10327 10322 10318 10314 10312 10309 10303 10296 10292 10286 10281 10276 10271 10268 10264 10260 10257 10253 10251 10248 10246 10246 10245 10244 10244 10243 10241 10242 10247 10246 10246 10246 10247 10250 10251 10252 10255 10259 10263 10264 10267 10271
10298 10293 10288 10283 10278 10275 10272 10266 10259 10252 10248 10243 10237 10232 10227 10224 10220 10216 10216 10212 10211 10209 10209 10210 10210 10207 10207 10206 10206 10213 10209 10211 10212 10211 10214 10216 10217 10221 10225 10227 10230 10231 10236
10266 10259 10254 10248 10243 10238 10232 10227 10222 10215 10209 10203 10197 10191 10186 10184 10181 10178 10176 10174 10172 10171 10171 10170 10171 10170 10170 10168 10168 10174 10174 10175 10178 10179 10180 10181 10184 10186 10190 10193 10193 10197 10204
10230 10224 10217 10211 10206 10202 10195 10187 10180 10174 10169 10164 10159 10153 10148 10145 10142 10140 10138 10136 10136 10135 10134 10133 10133 10134 10135 10133 10132 10135 10138 10141 10143 10145 10147 10149 10153 10155 10158 10159 10159 10164 10169
10190 10184 10178 10171 10165 10158 10152 10146 10142 10136 10129 10125 10120 10115 10111 10108 10106 10104 10102 10100 10100 10100 10100 10100 10101 10101 10101 10101 10101 10102 10106 10108 10109 10112 10115 10119 10122 10124 10125 10126 10128 10133 10136
10150 10143 10137 10130 10123 10117 10113 10109 10103 10097 10092 10088 10084 10080 10077 10075 10072 10069 10067 10067 10066 10066 10066 10067 10068 10069 10071 10072 10072 10071 10072 10077 10080 10081 10083 10087 10091 10093 10093 10096 10097 10100 10105
10114 10106 10098 10092 10085 10079 10075 10072 10068 10063 10057 10053 10049 10046 10043 10043 10040 10037 10035 10035 10034 10035 10035 10036 10038 10040 10042 10042 10044 10043 10042 10044 10045 10048 10051 10054 10058 10061 10064 10067 10069 10072 10077
10076 10071 10064 10057 10051 10046 10040 10036 10033 10030 10026 10020 10017 10015 10013 10011 10010 10008 10008 10007 10006 10006 10007 10008 10008 10010 10011 10012 10012 10012 10011 10012 10015 10019 10021 10025 10029 10031 10035 10039 10043 10046 10051